Track BPM Sizesort icon Size Produced Genre Time Time
Walking Toasty 130 186 1.12 MB Jan 2012 Pop 186 03:06
Catching 130 186 1.12 MB May 2012 Pop 186 03:06
Outside Iguana 120 186 1.12 MB Aug 2010 Pop 186 03:06
White Sands 124 186 1.12 MB Feb 2015 Pop 186 03:06
Controversies 120 187 1.12 MB Jul 2011 Pop 187 03:07
Bye Bye 120 187 1.12 MB Jan 2011 Pop 187 03:07
Space Plant 100 187 1.12 MB Jul 2011 Pop 187 03:07
Smooth Romp 100 187 1.12 MB Jul 2011 Pop 187 03:07
Cartoon Candy 114 188 1.13 MB Apr 2016 Pop 188 03:08
Wave King 140 188 1.13 MB Jun 2011 Pop 188 03:08
Disco Duke 135 189 1.13 MB Oct 2010 Pop 189 03:09
Red Jealous 160 190 1.14 MB Aug 2010 Pop 190 03:10
Dyslexic Squid 102 190 1.14 MB Aug 2010 Pop 190 03:10
Newtroid 130 190 1.14 MB Aug 2011 Pop 190 03:10
Scary Buzz 123 190 1.14 MB May 2012 Pop 190 03:10
Road Slip 123 191 1.15 MB Sep 2016 Pop 191 03:11
Shape 120 191 1.15 MB May 2018 Pop 191 03:11
Two Times 120 192 1.15 MB Aug 2010 Pop 192 03:12
Rev Pop 100 192 1.15 MB Apr 2011 Pop 192 03:12
Mix Wizard 120 194 1.16 MB Jul 2011 Pop 194 03:14
Drum Room 93 194 1.16 MB Apr 2011 Pop 194 03:14